Weather History for Karlovy Vary, Czech Republic

Change the Weather History Date:

Tuesday, October 23, 2012

  Actual Average (EDQM) Record (EDQM)
Temperature  
Mean Temperature 48 °F -  
Max Temperature 55 °F 48 °F 62 °F (2004)
Min Temperature 42 °F 38 °F 24 °F (1997)
Degree Days  
Heating Degree Days 16    
Moisture  
Dew Point 44 °F    
Average Humidity 87    
Maximum Humidity 100    
Minimum Humidity 72    
Precipitation  
Precipitation 0.00 in - - ()
Sea Level Pressure  
Sea Level Pressure 30.25 in    
Wind  
Wind Speed 5 mph ()    
Max Wind Speed 7 mph    
Max Gust Speed -    
Visibility 3.7 miles    
Events      
Averages and records for this station are not official NWS values.
T = Trace of Precipitation, MM = Missing Value Source: Averaged Metar Reports

Daily Weather History Graph

Daily Weather History Graph

Search for Another Location

Airport:

Trip Planner

Search our weather history database for the weather conditions in past years. The results will help you decide how hot, cold, wet, or windy it might be!

Date:

Astronomy

Oct. 23, 2012 Rise Set
Actual Time 7:43 AM CEST 6:00 PM CEST
Civil Twilight 7:10 AM CEST 6:33 PM CEST
Nautical Twilight 6:32 AM CEST 7:11 PM CEST
Astronomical Twilight 5:55 AM CEST 7:49 PM CEST
Moon 3:07 PM CEST (10/23) 12:40 AM CEST (10/23)
Length of Visible Light 11h 23m
Length of Day
10h 16m
Waxing Gibbous, 64% of the Moon is Illuminated
Oct 23
Waxing Gibbous
Oct 29
Full
Nov 7
Last Quarter
Nov 13
New
Nov 20
First Quarter

Hourly Weather History & Observations

Time (CEST) Temp. Windchill Dew Point Humidity Pressure Visibility Wind Dir Wind Speed Gust Speed Precip Events Conditions
12:00 AM 48.2 °F - 46.4 °F 93% 30.24 in 3.1 mi ENE 6.9 mph - N/A   Overcast
1:00 AM 48.2 °F - 46.4 °F 93% 30.24 in 3.1 mi East 6.9 mph - N/A   Overcast
2:00 AM 46.4 °F 42.9 °F 44.6 °F 93% 30.24 in 3.1 mi East 6.9 mph - N/A   Overcast
3:00 AM 46.4 °F 43.5 °F 42.8 °F 87% 30.24 in 3.1 mi East 5.8 mph - N/A   Overcast
4:00 AM 44.6 °F 42.2 °F 42.8 °F 93% 30.24 in 3.1 mi East 4.6 mph - N/A   Overcast
5:00 AM 44.6 °F 42.2 °F 42.8 °F 93% 30.24 in 3.1 mi East 4.6 mph - N/A   Overcast
6:00 AM 44.6 °F 41.4 °F 42.8 °F 93% 30.24 in 3.1 mi East 5.8 mph - N/A   Overcast
7:00 AM 44.6 °F 41.4 °F 42.8 °F 93% 30.24 in 3.1 mi ESE 5.8 mph - N/A   Overcast
7:30 AM 44.6 °F 40.7 °F 42.8 °F 93% 30.24 in 3.1 mi East 6.9 mph - N/A   Mostly Cloudy
8:00 AM 44.6 °F 41.4 °F 42.8 °F 93% 30.24 in 3.1 mi East 5.8 mph - N/A   Mostly Cloudy
8:30 AM 44.6 °F - 42.8 °F 93% 30.27 in 3.1 mi East 2.3 mph - N/A   Mostly Cloudy
9:00 AM 46.4 °F 44.3 °F 42.8 °F 87% 30.27 in 3.1 mi East 4.6 mph - N/A   Mostly Cloudy
9:30 AM 48.2 °F - 42.8 °F 82% 30.27 in 3.7 mi East 6.9 mph - N/A   Mostly Cloudy
10:00 AM 48.2 °F - 42.8 °F 82% 30.27 in 4.3 mi East 6.9 mph - N/A   Mostly Cloudy
10:30 AM 48.2 °F - 44.6 °F 87% 30.27 in 4.3 mi East 6.9 mph - N/A   Mostly Cloudy
11:00 AM 50.0 °F - 44.6 °F 82% 30.27 in 4.3 mi East 6.9 mph - N/A   Mostly Cloudy
11:30 AM 50.0 °F - 44.6 °F 82% 30.27 in 5.0 mi ESE 6.9 mph - N/A   Mostly Cloudy
12:00 PM 50.0 °F - 44.6 °F 82% 30.27 in 5.0 mi ESE 5.8 mph - N/A   Mostly Cloudy
12:30 PM 51.8 °F - 44.6 °F 76% 30.27 in 5.6 mi East 6.9 mph - N/A   Scattered Clouds
1:00 PM 53.6 °F - 44.6 °F 72% 30.27 in 5.6 mi ESE 5.8 mph - N/A   Scattered Clouds
1:30 PM 53.6 °F - 46.4 °F 77% 30.27 in 5.6 mi SE 4.6 mph - N/A   Scattered Clouds
2:00 PM 53.6 °F - 46.4 °F 77% 30.24 in 4.3 mi NE 6.9 mph - N/A   Scattered Clouds
2:30 PM 53.6 °F - 46.4 °F 77% 30.24 in 5.0 mi ESE 6.9 mph - N/A   Scattered Clouds
3:00 PM 55.4 °F - 46.4 °F 72% 30.24 in 5.0 mi ESE 6.9 mph - N/A   Partly Cloudy
3:30 PM 53.6 °F - 46.4 °F 77% 30.24 in 5.0 mi ESE 5.8 mph - N/A   Partly Cloudy
4:00 PM 53.6 °F - 46.4 °F 77% 30.24 in 5.0 mi East 4.6 mph - N/A   Partly Cloudy
4:30 PM 51.8 °F - 46.4 °F 82% 30.24 in 5.0 mi NE 4.6 mph - N/A   Partly Cloudy
5:00 PM 51.8 °F - 44.6 °F 76% 30.24 in 5.0 mi NE 4.6 mph - N/A   Partly Cloudy
5:30 PM 50.0 °F - 44.6 °F 82% 30.24 in 3.7 mi ESE 3.5 mph - N/A   Partly Cloudy
6:00 PM 48.2 °F - 44.6 °F 87% 30.24 in 3.1 mi ESE 3.5 mph - N/A   Partly Cloudy
6:30 PM 44.6 °F 43.1 °F 42.8 °F 93% 30.24 in 3.1 mi ESE 3.5 mph - N/A   Partly Cloudy
7:00 PM 44.6 °F 42.2 °F 42.8 °F 93% 30.24 in 3.1 mi East 4.6 mph - N/A   Partly Cloudy
7:30 PM 42.8 °F 41.1 °F 41.0 °F 93% 30.24 in 2.2 mi East 3.5 mph - N/A   Partly Cloudy
8:00 PM 42.8 °F 41.1 °F 42.8 °F 100% 30.24 in 1.9 mi East 3.5 mph - N/A   Scattered Clouds
8:30 PM 42.8 °F - 41.0 °F 93% 30.24 in 1.9 mi Calm Calm - N/A   Mostly Cloudy
9:00 PM 42.8 °F - 42.8 °F 100% 30.24 in 1.9 mi Variable 1.2 mph - N/A   Mostly Cloudy
10:00 PM 44.6 °F - 42.8 °F 93% 30.24 in 2.2 mi Variable 2.3 mph - N/A   Mostly Cloudy
11:00 PM 44.6 °F 42.2 °F 44.6 °F 100% 30.24 in 2.5 mi ESE 4.6 mph - N/A   Mostly Cloudy